Location: ????????
(56.1167°N, 38.6333°E)
Time: 11:19:01
(UTC+00:00)

Cosmos 2058 - Pass Details

Date: 18 November 2025
Orbit: 529 x 540 km, 82.5° (Epoch: 10 December)

Event Time Altitude Azimuth Distance (km) Brightness Sun altitude
Rises 14:14:25 0° 353° (N) 2,708 6.2 -8.5°
Reaches altitude 10° 14:16:48 10° 5° (N) 1,813 5.2 -8.8°
Maximum altitude 14:20:19 29° 67° (ENE) 1,010 3.6 -9.2°
Drops below altitude 10° 14:23:49 10° 129° (SE) 1,807 5.2 -9.7°
Sets 14:26:11 0° 140° (SE) 2,696 6.1 -10.0°
